• In Portugal
  • List of Countries
  • For 7 days
  • Water Temperature
  • Satellite Maps
  • Weather Map
  • Weather Widgets
  • user-avatar
    Login

    Hourly Weather Rawson

    Today, 23 April, Monday

    Time Temperature Precipitation Wind Pressure Humidity
    00:00 +12°C° 0 mm 5 mps 764 mmHg 36%
    01:00 +12°C° 0 mm 4 mps 764 mmHg 38%
    02:00 +11°C° 0 mm 4 mps 765 mmHg 39%
    03:00 +11°C° 0 mm 4 mps 765 mmHg 40%
    04:00 +11°C° 0 mm 4 mps 765 mmHg 40%
    05:00 +11°C° 0 mm 4 mps 765 mmHg 41%
    06:00 +11°C° 0 mm 3 mps 765 mmHg 40%
    07:00 +11°C° 0 mm 3 mps 765 mmHg 39%
    08:00 +12°C° 0 mm 3 mps 766 mmHg 37%
    09:00 +13°C° 0 mm 3 mps 766 mmHg 34%
    10:00 +14°C° 0 mm 3 mps 766 mmHg 31%
    11:00 +17°C° 0 mm 3 mps 766 mmHg 28%
    12:00 +17°C° 0 mm 4 mps 765 mmHg 27%
    13:00 +18°C° 0 mm 4 mps 765 mmHg 26%
    14:00 +19°C° 0 mm 5 mps 765 mmHg 26%
    15:00 +19°C° 0 mm 5 mps 765 mmHg 27%
    16:00 +19°C° 0 mm 5 mps 764 mmHg 28%
    17:00 +19°C° 0 mm 6 mps 764 mmHg 30%
    18:00 +17°C° 0 mm 6 mps 764 mmHg 35%
    19:00 +16°C° 0 mm 7 mps 765 mmHg 40%
    20:00 +15°C° 0 mm 8 mps 765 mmHg 46%
    21:00 +13°C° 0 mm 8 mps 765 mmHg 49%
    22:00 +13°C° 0 mm 8 mps 765 mmHg 52%
    23:00 +13°C° 0 mm 8 mps 765 mmHg 55%

    Tomorrow, 24 April, Tuesday

    Time Temperature Precipitation Wind Pressure Humidity
    00:00 +13°C° 0 mm 8 mps 765 mmHg 58%
    01:00 +13°C° 0 mm 9 mps 765 mmHg 60%
    02:00 +13°C° 0 mm 9 mps 765 mmHg 63%
    03:00 +12°C° 0 mm 9 mps 764 mmHg 65%
    04:00 +12°C° 0 mm 8 mps 764 mmHg 67%
    05:00 +12°C° 0 mm 8 mps 764 mmHg 69%
    06:00 +12°C° 0 mm 8 mps 764 mmHg 69%
    07:00 +12°C° 0 mm 8 mps 764 mmHg 70%
    08:00 +12°C° 0 mm 7 mps 764 mmHg 70%
    09:00 +15°C° 0 mm 7 mps 764 mmHg 66%
    10:00 +16°C° 0 mm 7 mps 764 mmHg 62%
    11:00 +17°C° 0 mm 7 mps 764 mmHg 58%
    12:00 +17°C° 0 mm 7 mps 764 mmHg 58%
    13:00 +17°C° 0 mm 7 mps 763 mmHg 58%
    14:00 +19°C° 0 mm 6 mps 763 mmHg 58%
    15:00 +17°C° 0 mm 6 mps 763 mmHg 59%
    16:00 +17°C° 0 mm 6 mps 763 mmHg 60%
    17:00 +17°C° 0 mm 5 mps 763 mmHg 62%
    18:00 +16°C° 0.1 mm 5 mps 763 mmHg 65%
    19:00 +16°C° 0.1 mm 5 mps 763 mmHg 69%
    20:00 +15°C° 0.1 mm 5 mps 763 mmHg 73%
    21:00 +15°C° 0.1 mm 4 mps 763 mmHg 76%
    22:00 +14°C° 0.1 mm 4 mps 763 mmHg 79%
    23:00 +14°C° 0.1 mm 3 mps 763 mmHg 82%

    Day after tomorrow, 25 April, Wednesday

    Time Temperature Precipitation Wind Pressure Humidity
    00:00 +14°C° 0 mm 3 mps 763 mmHg 84%
    01:00 +14°C° 0 mm 2 mps 762 mmHg 85%
    02:00 +14°C° 0 mm 2 mps 762 mmHg 87%
    03:00 +14°C° 0 mm 2 mps 762 mmHg 87%
    04:00 +14°C° 0 mm 2 mps 761 mmHg 87%
    05:00 +14°C° 0 mm 2 mps 761 mmHg 87%
    06:00 +13°C° 0 mm 3 mps 760 mmHg 86%
    07:00 +13°C° 0 mm 4 mps 760 mmHg 85%
    08:00 +13°C° 0 mm 4 mps 760 mmHg 85%
    09:00 +15°C° 0 mm 5 mps 759 mmHg 72%
    10:00 +17°C° 0 mm 6 mps 759 mmHg 59%
    11:00 +20°C° 0 mm 7 mps 759 mmHg 47%
    12:00 +21°C° 0 mm 8 mps 758 mmHg 40%
    13:00 +23°C° 0 mm 9 mps 757 mmHg 33%
    14:00 +24°C° 0 mm 9 mps 756 mmHg 26%
    15:00 +24°C° 0 mm 10 mps 755 mmHg 28%
    16:00 +24°C° 0 mm 10 mps 754 mmHg 30%
    17:00 +23°C° 0 mm 10 mps 754 mmHg 31%
    18:00 +23°C° 0 mm 11 mps 753 mmHg 36%
    19:00 +22°C° 0 mm 11 mps 753 mmHg 41%
    20:00 +21°C° 0 mm 12 mps 753 mmHg 46%
    21:00 +21°C° 0 mm 12 mps 753 mmHg 49%
    22:00 +21°C° 0 mm 12 mps 752 mmHg 52%
    23:00 +21°C° 0 mm 12 mps 752 mmHg 55%

    26 April, Thursday

    Time Temperature Precipitation Wind Pressure Humidity
    00:00 +21°C° 0 mm 12 mps 752 mmHg 58%
    01:00 +21°C° 0 mm 12 mps 751 mmHg 60%
    02:00 +21°C° 0 mm 12 mps 751 mmHg 62%
    03:00 +21°C° 0 mm 12 mps 750 mmHg 63%
    04:00 +21°C° 0 mm 11 mps 750 mmHg 64%
    05:00 +21°C° 0 mm 10 mps 750 mmHg 66%
    06:00 +21°C° 0 mm 10 mps 750 mmHg 62%
    07:00 +21°C° 0 mm 9 mps 750 mmHg 59%
    08:00 +20°C° 0 mm 8 mps 750 mmHg 56%
    09:00 +22°C° 0 mm 8 mps 749 mmHg 48%
    10:00 +23°C° 0 mm 8 mps 749 mmHg 40%
    11:00 +24°C° 0 mm 8 mps 749 mmHg 32%
    12:00 +23°C° 0 mm 8 mps 749 mmHg 35%
    13:00 +22°C° 0 mm 7 mps 748 mmHg 37%
    14:00 +22°C° 0 mm 7 mps 748 mmHg 40%
    15:00 +20°C° 0.3 mm 7 mps 748 mmHg 42%
    16:00 +18°C° 0.3 mm 7 mps 748 mmHg 44%
    17:00 +17°C° 0.3 mm 6 mps 748 mmHg 46%
    18:00 +17°C° 0.4 mm 6 mps 748 mmHg 51%
    19:00 +16°C° 0.4 mm 6 mps 749 mmHg 56%
    20:00 +16°C° 0.4 mm 5 mps 749 mmHg 60%
    21:00 +15°C° 0.2 mm 7 mps 750 mmHg 51%
    22:00 +15°C° 0.2 mm 8 mps 751 mmHg 41%
    23:00 +14°C° 0.2 mm 10 mps 751 mmHg 31%

    27 April, Friday

    Time Temperature Precipitation Wind Pressure Humidity
    00:00 +13°C° 0 mm 10 mps 752 mmHg 31%
    01:00 +12°C° 0 mm 11 mps 753 mmHg 32%
    02:00 +12°C° 0 mm 12 mps 753 mmHg 33%
    03:00 +10°C° 0 mm 12 mps 754 mmHg 35%
    04:00 +10°C° 0 mm 12 mps 754 mmHg 38%
    05:00 +10°C° 0 mm 12 mps 755 mmHg 40%
    06:00 +9°C° 0 mm 12 mps 755 mmHg 39%
    07:00 +9°C° 0 mm 12 mps 756 mmHg 39%
    08:00 +9°C° 0 mm 12 mps 757 mmHg 38%
    09:00 +9°C° 0 mm 13 mps 758 mmHg 34%
    10:00 +10°C° 0 mm 13 mps 758 mmHg 30%
    11:00 +12°C° 0 mm 14 mps 759 mmHg 26%
    12:00 +13°C° 0 mm 13 mps 759 mmHg 25%
    13:00 +13°C° 0 mm 12 mps 760 mmHg 23%
    14:00 +14°C° 0 mm 10 mps 760 mmHg 22%
    15:00 +14°C° 0 mm 10 mps 760 mmHg 23%
    16:00 +13°C° 0 mm 9 mps 761 mmHg 24%
    17:00 +13°C° 0 mm 8 mps 761 mmHg 24%
    18:00 +12°C° 0 mm 7 mps 761 mmHg 26%
    19:00 +12°C° 0 mm 7 mps 762 mmHg 28%
    20:00 +11°C° 0 mm 6 mps 762 mmHg 30%
    21:00 +11°C° 0 mm 6 mps 763 mmHg 32%
    22:00 +10°C° 0 mm 7 mps 763 mmHg 33%
    23:00 +10°C° 0 mm 8 mps 763 mmHg 34%

    28 April, Saturday

    Time Temperature Precipitation Wind Pressure Humidity
    00:00 +9°C° 0 mm 7 mps 763 mmHg 36%
    01:00 +9°C° 0 mm 7 mps 764 mmHg 37%
    02:00 +8°C° 0 mm 7 mps 764 mmHg 39%
    03:00 +8°C° 0 mm 6 mps 764 mmHg 41%
    04:00 +8°C° 0 mm 6 mps 764 mmHg 43%
    05:00 +7°C° 0 mm 5 mps 764 mmHg 45%
    06:00 +7°C° 0 mm 4 mps 764 mmHg 46%
    07:00 +7°C° 0 mm 4 mps 764 mmHg 47%
    08:00 +8°C° 0 mm 3 mps 765 mmHg 47%
    09:00 +9°C° 0 mm 3 mps 765 mmHg 42%
    10:00 +10°C° 0 mm 3 mps 765 mmHg 37%
    11:00 +12°C° 0 mm 3 mps 765 mmHg 32%
    12:00 +12°C° 0 mm 3 mps 765 mmHg 31%
    13:00 +13°C° 0 mm 3 mps 764 mmHg 30%
    14:00 +14°C° 0 mm 2 mps 764 mmHg 29%
    15:00 +14°C° 0 mm 2 mps 764 mmHg 30%
    16:00 +14°C° 0 mm 2 mps 764 mmHg 31%
    17:00 +14°C° 0 mm 2 mps 764 mmHg 31%
    18:00 +14°C° 0 mm 2 mps 764 mmHg 33%
    19:00 +12°C° 0 mm 3 mps 764 mmHg 35%
    20:00 +12°C° 0 mm 3 mps 764 mmHg 37%
    21:00 +12°C° 0 mm 3 mps 764 mmHg 40%
    22:00 +11°C° 0 mm 3 mps 764 mmHg 42%
    23:00 +11°C° 0 mm 3 mps 763 mmHg 45%
    Show more